Hourly Weather Gofickoe

Today, 7 May, Friday

Time Temperature Precipitation Wind Pressure Humidity
00:00 +9°C° 0 mm 5 mps 740 mmHg 62%
01:00 +10°C° 0 mm 4 mps 740 mmHg 62%
02:00 +10°C° 0 mm 4 mps 740 mmHg 63%
03:00 +9°C° 0 mm 3 mps 740 mmHg 63%
04:00 +9°C° 0 mm 3 mps 740 mmHg 65%
05:00 +9°C° 0 mm 3 mps 741 mmHg 67%
06:00 +9°C° 0 mm 3 mps 741 mmHg 69%
07:00 +12°C° 0 mm 2 mps 741 mmHg 64%
08:00 +15°C° 0 mm 2 mps 742 mmHg 60%
09:00 +17°C° 0 mm 2 mps 742 mmHg 55%
10:00 +18°C° 0 mm 3 mps 742 mmHg 51%
11:00 +20°C° 0 mm 3 mps 742 mmHg 48%
12:00 +22°C° 0 mm 4 mps 742 mmHg 45%
13:00 +22°C° 0 mm 4 mps 742 mmHg 44%
14:00 +22°C° 0 mm 5 mps 742 mmHg 43%
15:00 +22°C° 0 mm 5 mps 742 mmHg 42%
16:00 +21°C° 0 mm 4 mps 742 mmHg 47%
17:00 +20°C° 0 mm 4 mps 742 mmHg 53%
18:00 +19°C° 0 mm 3 mps 742 mmHg 59%
19:00 +18°C° 0 mm 2 mps 743 mmHg 63%
20:00 +16°C° 0 mm 2 mps 743 mmHg 67%
21:00 +15°C° 0 mm 1 mps 743 mmHg 71%
22:00 +14°C° 0 mm 1 mps 743 mmHg 73%
23:00 +14°C° 0 mm 1 mps 743 mmHg 74%

Tomorrow, 8 May, Saturday

Time Temperature Precipitation Wind Pressure Humidity
00:00 +14°C° 0 mm 1 mps 743 mmHg 75%
01:00 +13°C° 0 mm 1 mps 743 mmHg 76%
02:00 +13°C° 0 mm 1 mps 743 mmHg 77%
03:00 +13°C° 0 mm 1 mps 742 mmHg 77%
04:00 +13°C° 0 mm 1 mps 742 mmHg 77%
05:00 +13°C° 0 mm 2 mps 742 mmHg 78%
06:00 +14°C° 0 mm 2 mps 742 mmHg 78%
07:00 +16°C° 0 mm 3 mps 742 mmHg 71%
08:00 +18°C° 0 mm 4 mps 742 mmHg 64%
09:00 +19°C° 0 mm 4 mps 742 mmHg 58%
10:00 +21°C° 0 mm 5 mps 742 mmHg 54%
11:00 +22°C° 0 mm 5 mps 741 mmHg 51%
12:00 +23°C° 0 mm 5 mps 741 mmHg 48%
13:00 +23°C° 0 mm 5 mps 741 mmHg 47%
14:00 +25°C° 0 mm 5 mps 740 mmHg 47%
15:00 +25°C° 0 mm 5 mps 740 mmHg 46%
16:00 +23°C° 0 mm 4 mps 740 mmHg 51%
17:00 +22°C° 0 mm 4 mps 740 mmHg 57%
18:00 +21°C° 0 mm 3 mps 739 mmHg 62%
19:00 +20°C° 0 mm 3 mps 739 mmHg 64%
20:00 +19°C° 0 mm 3 mps 739 mmHg 66%
21:00 +17°C° 0 mm 3 mps 739 mmHg 68%
22:00 +16°C° 0 mm 3 mps 739 mmHg 69%
23:00 +14°C° 0 mm 3 mps 738 mmHg 69%

Day after tomorrow, 9 May, Sunday

Time Temperature Precipitation Wind Pressure Humidity
00:00 +13°C° 0 mm 3 mps 738 mmHg 70%
01:00 +12°C° 0 mm 3 mps 738 mmHg 71%
02:00 +12°C° 0 mm 3 mps 737 mmHg 72%
03:00 +11°C° 0 mm 3 mps 737 mmHg 73%
04:00 +11°C° 0 mm 3 mps 736 mmHg 74%
05:00 +11°C° 0 mm 3 mps 736 mmHg 75%
06:00 +11°C° 0 mm 3 mps 735 mmHg 76%
07:00 +13°C° 0 mm 3 mps 736 mmHg 77%
08:00 +14°C° 0 mm 4 mps 736 mmHg 77%
09:00 +17°C° 0 mm 4 mps 736 mmHg 77%
10:00 +17°C° 0 mm 4 mps 736 mmHg 76%
11:00 +18°C° 0 mm 4 mps 736 mmHg 75%
12:00 +19°C° 0 mm 5 mps 736 mmHg 74%
13:00 +17°C° 0.3 mm 6 mps 737 mmHg 75%
14:00 +17°C° 0.3 mm 8 mps 737 mmHg 77%
15:00 +16°C° 0.3 mm 9 mps 738 mmHg 78%
16:00 +13°C° 1.3 mm 9 mps 739 mmHg 82%
17:00 +10°C° 1.3 mm 9 mps 740 mmHg 87%
18:00 +6°C° 1.3 mm 9 mps 741 mmHg 91%
19:00 +6°C° 2.8 mm 9 mps 742 mmHg 91%
20:00 +5°C° 2.8 mm 9 mps 742 mmHg 92%
21:00 +5°C° 2.8 mm 9 mps 743 mmHg 92%
22:00 +5°C° 0.4 mm 9 mps 743 mmHg 92%
23:00 +5°C° 0.4 mm 9 mps 743 mmHg 92%

10 May, Monday

Time Temperature Precipitation Wind Pressure Humidity
00:00 +5°C° 0.4 mm 9 mps 743 mmHg 92%
01:00 +5°C° 0 mm 9 mps 744 mmHg 89%
02:00 +4°C° 0 mm 8 mps 744 mmHg 86%
03:00 +4°C° 0 mm 8 mps 744 mmHg 84%
04:00 +3°C° 0 mm 9 mps 744 mmHg 84%
05:00 +3°C° 0 mm 9 mps 744 mmHg 85%
06:00 +3°C° 0 mm 9 mps 744 mmHg 86%
07:00 +5°C° 0 mm 9 mps 744 mmHg 83%
08:00 +5°C° 0 mm 8 mps 744 mmHg 80%
09:00 +6°C° 0 mm 8 mps 744 mmHg 77%
10:00 +7°C° 0 mm 8 mps 744 mmHg 71%
11:00 +10°C° 0 mm 9 mps 743 mmHg 64%
12:00 +11°C° 0 mm 9 mps 743 mmHg 58%
13:00 +11°C° 0 mm 9 mps 743 mmHg 57%
14:00 +12°C° 0 mm 9 mps 743 mmHg 57%
15:00 +12°C° 0 mm 9 mps 743 mmHg 56%
16:00 +11°C° 0 mm 8 mps 743 mmHg 61%
17:00 +10°C° 0 mm 6 mps 743 mmHg 65%
18:00 +9°C° 0 mm 5 mps 744 mmHg 70%
19:00 +8°C° 0 mm 4 mps 744 mmHg 76%
20:00 +7°C° 0 mm 3 mps 744 mmHg 81%
21:00 +6°C° 0 mm 2 mps 745 mmHg 87%
22:00 +6°C° 0 mm 2 mps 745 mmHg 85%
23:00 +6°C° 0 mm 2 mps 745 mmHg 84%

11 May, Tuesday

Time Temperature Precipitation Wind Pressure Humidity
00:00 +6°C° 0 mm 2 mps 745 mmHg 83%
01:00 +6°C° 0 mm 2 mps 745 mmHg 83%
02:00 +7°C° 0 mm 1 mps 745 mmHg 83%
03:00 +7°C° 0 mm 1 mps 745 mmHg 82%
04:00 +7°C° 0 mm 1 mps 745 mmHg 81%
05:00 +8°C° 0 mm 1 mps 745 mmHg 80%
06:00 +8°C° 0 mm 1 mps 745 mmHg 79%
07:00 +8°C° 0.1 mm 2 mps 745 mmHg 77%
08:00 +7°C° 0.1 mm 4 mps 745 mmHg 75%
09:00 +8°C° 0.1 mm 5 mps 746 mmHg 73%
10:00 +9°C° 0 mm 5 mps 746 mmHg 70%
11:00 +10°C° 0 mm 6 mps 746 mmHg 67%
12:00 +11°C° 0 mm 6 mps 745 mmHg 63%
13:00 +11°C° 0 mm 6 mps 745 mmHg 62%
14:00 +13°C° 0 mm 6 mps 745 mmHg 60%
15:00 +14°C° 0 mm 6 mps 745 mmHg 59%
16:00 +13°C° 0 mm 5 mps 745 mmHg 61%
17:00 +13°C° 0 mm 5 mps 745 mmHg 64%
18:00 +12°C° 0 mm 5 mps 745 mmHg 66%
19:00 +11°C° 0 mm 4 mps 745 mmHg 68%
20:00 +11°C° 0 mm 4 mps 745 mmHg 69%
21:00 +10°C° 0 mm 3 mps 744 mmHg 70%
22:00 +9°C° 0 mm 3 mps 744 mmHg 72%
23:00 +8°C° 0 mm 3 mps 744 mmHg 74%

12 May, Wednesday

Time Temperature Precipitation Wind Pressure Humidity
00:00 +8°C° 0 mm 3 mps 744 mmHg 76%
01:00 +7°C° 0 mm 3 mps 744 mmHg 78%
02:00 +7°C° 0 mm 3 mps 744 mmHg 80%
03:00 +5°C° 0 mm 3 mps 744 mmHg 82%
04:00 +7°C° 0 mm 3 mps 744 mmHg 82%
05:00 +7°C° 0 mm 3 mps 744 mmHg 83%
06:00 +8°C° 0 mm 3 mps 744 mmHg 83%
07:00 +10°C° 0 mm 4 mps 744 mmHg 76%
08:00 +12°C° 0 mm 5 mps 744 mmHg 68%
09:00 +14°C° 0 mm 6 mps 744 mmHg 61%
10:00 +15°C° 0 mm 6 mps 743 mmHg 58%
11:00 +16°C° 0 mm 5 mps 743 mmHg 55%
12:00 +17°C° 0 mm 5 mps 743 mmHg 52%
13:00 +19°C° 0 mm 5 mps 743 mmHg 51%
14:00 +19°C° 0 mm 5 mps 743 mmHg 51%
15:00 +20°C° 0 mm 5 mps 742 mmHg 50%
16:00 +20°C° 0 mm 4 mps 742 mmHg 54%
17:00 +19°C° 0 mm 3 mps 742 mmHg 58%
18:00 +19°C° 0 mm 3 mps 742 mmHg 62%
19:00 +17°C° 0 mm 3 mps 742 mmHg 65%
20:00 +15°C° 0 mm 2 mps 742 mmHg 69%
21:00 +14°C° 0 mm 2 mps 742 mmHg 72%
22:00 +13°C° 0 mm 2 mps 741 mmHg 73%
23:00 +13°C° 0 mm 2 mps 741 mmHg 75%
Show more